Regional Weather Roundup
Issued by NWS Sioux Falls, SD

Home | Current Version | Previous Version | Text Only | Print | Product List | Glossary On
Versions: 1 2 3 4 5 6 7 8 9 10 11 12 13 14 15 16 17 18 19 20 21 22 23 24 25 26 27 28 29 30 31 32 33 34 35 36 37 38 39 40 41 42 43 44 45 46 47 48 49 50
000
ASUS43 KFSD 240710
RWRFSD

WEATHER ROUNDUP FOR SE SOUTH DAKOTA/SW MINNESOTA/NW IOWA
NATIONAL WEATHER SERVICE SIOUX FALLS SD
200 AM CDT TUE APR 24 2018

NOTE: "FAIR" INDICATES FEW OR NO CLOUDS BELOW 12,000 FEET WITH NO
SIGNIFICANT WEATHER AND OR OBSTRUCTIONS TO VISIBILITY.


SDZ038>040-050-052>070-240800-
SOUTHEAST SOUTH DAKOTA

CITY           SKY/WX    TMP DP  RH WIND       PRES   REMARKS
BROOKINGS      CLOUDY    50  42  74 SE3       30.15S
CHAMBERLAIN    LGT RAIN  55  47  77 S6        30.14R
HURON          CLOUDY    55  43  63 SE9       30.12R
MADISON        CLOUDY    46  46 100 E6        30.15R
MITCHELL       CLOUDY    55  42  61 SE14      30.13R
SIOUX FALLS    CLOUDY    48  40  73 CALM      30.14R
WINNER         LGT RAIN  53  48  83 W8        30.14R
YANKTON        CLOUDY    50  40  68 CALM      30.15R
$$

MNZ071-072-080-081-089-090-097-098-240800-
SOUTHWEST MINNESOTA

CITY           SKY/WX    TMP DP  RH WIND       PRES   REMARKS
FAIRMONT       CLEAR     43  37  79 CALM      30.16R
JACKSON        CLEAR     46  36  66 CALM      30.16S
LUVERNE        CLOUDY    45  41  87 CALM      30.16R
MARSHALL       CLEAR     44  37  76 S5        30.15S
MONTEVIDEO     CLEAR     46  37  71 CALM      30.15S
PIPESTONE      CLEAR    N/A N/A N/A SE5       30.15R
REDWOOD FALLS  CLEAR     49  41  74 NW5       30.15R
TRACY          CLEAR     48  40  73 SW7       30.14S
WINDOM         CLEAR     43  28  56 CALM      30.15F
WORTHINGTON    CLOUDY    44  39  82 E3        30.16S
$$

IAZ001>003-012>014-020>022-031-032-NEZ013-014-SDZ071-240800-
NORTHWEST IOWA

CITY           SKY/WX    TMP DP  RH WIND       PRES   REMARKS
CHEROKEE       PTCLDY    44  41  89 CALM      30.15S
DENISON        MOCLDY    48  39  71 NE5       30.15S
ESTHERVILLE    CLEAR     40  37  89 NW7       30.15S
LE MARS        CLEAR     45  39  81 CALM      30.15R
ORANGE CITY    PTCLDY    48  41  76 E3        30.15S
SHELDON        CLOUDY    43  39  87 CALM      30.14S
SIOUX CITY     MOCLDY    47  39  74 CALM      30.15R
SPENCER        CLOUDY    40  38  93 CALM      30.15S FOG
STORM LAKE     CLEAR     48  41  76 NE8       30.15S
$$

ABBREVIATIONS USED IN REMARKS
   TC - TEMPERATURE IN CELSIUS
  WCI - WIND CHILL INDEX
   HX - HEAT INDEX
  VSB - VISIBILITY




USA.gov is the U.S. government's official web portal to all federal, state and local government web resources and services.